Regional Weather Roundup
Issued by NWS

Home | Current Version | Previous Version | Graphics & Text | Print | Product List | Glossary On
Versions: 1 2 3 4 5 6 7 8 9 10 11 12 13 14 15 16 17 18 19 20 21 22 23 24 25 26 27 28 29 30 31 32 33 34 35 36 37 38 39 40 41 42 43 44 45 46 47 48 49 50
000
ASUS44 KMEG 012200
RWRTN
TENNESSEE HOURLY STATE WEATHER ROUNDUP
NATIONAL WEATHER SERVICE MEMPHIS TN
500 PM CDT SAT AUG 01 2015

TNZ002-004-019-021-049-052-054-088>092-012300-
WEST TENNESSEE

CITY           SKY/WX    TMP DP  RH WIND       PRES   REMARKS
MEMPHIS INTL   MOSUNNY   95  61  32 NW8       29.97F HX  95
NWS MEMPHIS      N/A     94 N/A N/A MISG        N/A
JACKSON        SUNNY     93  62  35 NW5       29.97F HX  93
DYERSBURG        N/A    N/A N/A N/A MISG        N/A
PARIS          MOSUNNY   88  68  51 CALM      29.99S HX  91
LEXINGTON      SUNNY     90  64  43 NW3       29.97S HX  91
$$

TNZ008-025-027-028-033-062-065-066-012300-
NORTH MIDDLE TENNESSEE

CITY           SKY/WX    TMP DP  RH WIND       PRES   REMARKS
NASHVILLE      MOSUNNY   92  64  39 N13       29.97F HX  93
CLARKSVILLE    SUNNY     88  69  53 N8        29.98S HX  92
CROSSVILLE     SUNNY     82  58  43 N6        30.04S
$$

TNZ061-075-076-078-094-096-097-012300-
SOUTH MIDDLE TENNESSEE

CITY           SKY/WX    TMP DP  RH WIND       PRES   REMARKS
FAYETTEVILLE   SUNNY     88  59  37 E8        29.98S
TULLAHOMA      SUNNY     88  57  35 VRB6      30.00F
WINCHESTER     SUNNY     90  59  35 NE8       29.98F
MCMINNVILLE    MOSUNNY   88  66  48 NE7       29.99F HX  90
COLUMBIA       SUNNY     91  64  40 VRB7      29.96F HX  93
SHELBYVILLE    MOSUNNY   91  64  40 NE8       29.98F HX  93
$$

TNZ017-018-042-046-047-012300-
NORTHEAST TENNESSEE

CITY           SKY/WX    TMP DP  RH WIND       PRES   REMARKS
TRI CITIES     MOSUNNY   87  55  33 NW9G18    29.98F
ELIZABETHTON   CLEAR     82  57  42 W8        29.99F
$$

TNZ012-013-036-069-073-074-012300-
CENTRAL EAST TENNESSEE

CITY           SKY/WX    TMP DP  RH WIND       PRES   REMARKS
KNOXVILLE      MOSUNNY   87  58  37 E5        29.96F
OAK RIDGE      SUNNY     90  58  33 NW5       29.98S
GATLINBURG     CLEAR     88  55  33 NW6       29.96F
$$

TNZ083-085-099-012300-
SOUTHEAST TENNESSEE

CITY           SKY/WX    TMP DP  RH WIND       PRES   REMARKS
CHATTANOOGA    MOSUNNY   91  63  39 NE8       29.95F HX  92
$$

SKY/WX REPORTED AS FAIR MEANS FEW OR NO CLOUDS BELOW
12 THOUSAND FEET.




USA.gov is the U.S. government's official web portal to all federal, state and local government web resources and services.